| time (UTC) | temp C | wind direction | speed KPH | gust KPH | rain 1hr cm | rain 24hr cm | rain mn cm | humidity % | barometer mb |
| 20260906100658 | 32 | 45 | 24.1 | 41.8 | 0.00 | 0.00 | 0.00 | 23 | 1013.0 |
| 20260906095156 | 32 | 338 | 25.7 | 35.4 | 0.00 | 0.00 | 0.00 | 25 | 1013.1 |
| 20260906093654 | 32 | 0 | 27.4 | 37.0 | 0.00 | 0.00 | 0.00 | 26 | 1013.0 |
| 20260906092152 | 32 | 45 | 24.1 | 35.4 | 0.00 | 0.00 | 0.00 | 28 | 1013.0 |
| 20260906090650 | 32 | 45 | 37.0 | 43.5 | 0.00 | 0.00 | 0.00 | 28 | 1012.9 |
| 20260906085148 | 32 | 90 | 29.0 | 41.8 | 0.00 | 0.00 | 0.00 | 30 | 1013.0 |
| 20260906083806 | 33 | 0 | 22.5 | 37.0 | 0.00 | 0.00 | 0.00 | 22 | 1012.9 |
| 20260906082143 | 32 | 0 | 17.7 | 48.3 | 0.00 | 0.00 | 0.00 | 21 | 1012.9 |
| 20260906080642 | 32 | 45 | 17.7 | 32.2 | 0.00 | 0.00 | 0.00 | 21 | 1013.0 |
| 20260906075139 | 32 | 45 | 17.7 | 32.2 | 0.00 | 0.00 | 0.00 | 20 | 1012.9 |
| 20260906073637 | 32 | 0 | 17.7 | 30.6 | 0.00 | 0.00 | 0.00 | 20 | 1013.0 |
| 20260906072135 | 32 | 45 | 17.7 | 37.0 | 0.00 | 0.00 | 0.00 | 23 | 1012.8 |
| 20260906070633 | 31 | 45 | 22.5 | 27.4 | 0.00 | 0.00 | 0.00 | 23 | 1012.7 |
| 20260906065131 | 31 | 45 | 16.1 | 30.6 | 0.00 | 0.00 | 0.00 | 25 | 1012.9 |
| 20260906063629 | 31 | 315 | 14.5 | 29.0 | 0.00 | 0.00 | 0.00 | 25 | 1012.9 |
| 20260906062127 | 30 | 0 | 17.7 | 33.8 | 0.00 | 0.00 | 0.00 | 26 | 1012.5 |
| 20260906060624 | 30 | 0 | 12.9 | 35.4 | 0.00 | 0.00 | 0.00 | 26 | 1012.5 |
| 20260906055122 | 30 | 0 | 24.1 | 33.8 | 0.00 | 0.00 | 0.00 | 25 | 1012.3 |
| 20260906053619 | 30 | 0 | 24.1 | 33.8 | 0.00 | 0.00 | 0.00 | 26 | 1012.0 |
| 20260906052118 | 29 | 45 | 19.3 | 33.8 | 0.00 | 0.00 | 0.00 | 27 | 1012.0 |
| 20260906050615 | 29 | 90 | 16.1 | 32.2 | 0.00 | 0.00 | 0.00 | 29 | 1013.4 |
| 20260906045113 | 28 | 90 | 17.7 | 33.8 | 0.00 | 0.00 | 0.00 | 28 | 1011.8 |
| 20260906043611 | 28 | 45 | 17.7 | 30.6 | 0.00 | 0.00 | 0.00 | 30 | 1011.8 |
| 20260906042109 | 28 | 0 | 19.3 | 32.2 | 0.00 | 0.00 | 0.00 | 30 | 1011.5 |
| 20260906040607 | 27 | 0 | 25.7 | 33.8 | 0.00 | 0.00 | 0.00 | 31 | 1011.6 |
| 20260906035104 | 27 | 0 | 17.7 | 30.6 | 0.00 | 0.00 | 0.00 | 31 | 1011.3 |
| 20260906033602 | 27 | 315 | 17.7 | 32.2 | 0.00 | 0.00 | 0.00 | 31 | 1011.3 |
| 20260906032100 | 27 | 45 | 20.9 | 33.8 | 0.00 | 0.00 | 0.00 | 30 | 1011.4 |
| 20260906030558 | 27 | 315 | 17.7 | 29.0 | 0.00 | 0.00 | 0.00 | 30 | 1011.2 |
| 20260906025056 | 27 | 0 | 19.3 | 37.0 | 0.00 | 0.00 | 0.00 | 30 | 1011.1 |
| 20260906023553 | 27 | 45 | 20.9 | 32.2 | 0.00 | 0.00 | 0.00 | 30 | 1011.2 |
| 20260906022054 | 27 | 0 | 17.7 | 33.8 | 0.00 | 0.00 | 0.00 | 30 | 1011.2 |
| 20260906020549 | 27 | 45 | 17.7 | 27.4 | 0.00 | 0.00 | 0.00 | 30 | 1011.3 |
| 20260906015048 | 27 | 315 | 17.7 | 33.8 | 0.00 | 0.00 | 0.00 | 30 | 1011.5 |
| 20260906013545 | 27 | 315 | 12.9 | 33.8 | 0.00 | 0.00 | 0.00 | 31 | 1011.6 |
| 20260906012043 | 27 | 45 | 19.3 | 27.4 | 0.00 | 0.00 | 0.00 | 30 | 1011.5 |
| 20260906010541 | 27 | 0 | 17.7 | 29.0 | 0.00 | 0.00 | 0.00 | 31 | 1011.5 |
| 20260906005039 | 27 | 0 | 19.3 | 40.2 | 0.00 | 0.00 | 0.00 | 31 | 1011.5 |
| 20260906003538 | 27 | 0 | 27.4 | 33.8 | 0.00 | 0.00 | 0.00 | 31 | 1011.6 |
| 20260906002035 | 27 | 45 | 22.5 | 29.0 | 0.00 | 0.00 | 0.00 | 30 | 1011.5 |
| 20260906000533 | 27 | 0 | 20.9 | 30.6 | 0.00 | 0.00 | 0.00 | 32 | 1011.5 |
| 20260905235030 | 27 | 45 | 16.1 | 27.4 | 0.00 | 0.00 | 0.00 | 32 | 1011.8 |
| 20260905233528 | 27 | 0 | 14.5 | 33.8 | 0.00 | 0.00 | 0.00 | 32 | 1011.9 |
| 20260905232026 | 27 | 45 | 14.5 | 30.6 | 0.00 | 0.00 | 0.00 | 32 | 1012.1 |
| 20260905230524 | 27 | 45 | 12.9 | 29.0 | 0.00 | 0.00 | 0.00 | 33 | 1011.9 |
| 20260905225021 | 27 | 0 | 16.1 | 25.7 | 0.00 | 0.00 | 0.00 | 33 | 1012.1 |
| 20260905223519 | 27 | 45 | 12.9 | 27.4 | 0.00 | 0.00 | 0.00 | 34 | 1012.1 |
| 20260905222018 | 27 | 45 | 19.3 | 27.4 | 0.00 | 0.00 | 0.00 | 34 | 1012.1 |
| 20260905220515 | 27 | 45 | 12.9 | 30.6 | 0.00 | 0.00 | 0.00 | 38 | 1012.1 |
| 20260905215013 | 27 | 0 | 12.9 | 37.0 | 0.00 | 0.00 | 0.00 | 36 | 1012.0 |
| 20260905213512 | 27 | 0 | 19.3 | 30.6 | 0.00 | 0.00 | 0.00 | 42 | 1011.9 |
| 20260905212009 | 27 | 45 | 17.7 | 27.4 | 0.00 | 0.00 | 0.00 | 44 | 1012.1 |
| 20260905210507 | 27 | 338 | 17.7 | 25.7 | 0.00 | 0.00 | 0.00 | 44 | 1012.3 |
| 20260905205004 | 27 | 45 | 16.1 | 27.4 | 0.00 | 0.00 | 0.00 | 46 | 1012.2 |
| 20260905203502 | 26 | 90 | 14.5 | 25.7 | 0.00 | 0.00 | 0.00 | 49 | 1012.3 |
| 20260905202000 | 26 | 0 | 17.7 | 25.7 | 0.00 | 0.00 | 0.00 | 50 | 1012.3 |
| 20260905200458 | 26 | 45 | 12.9 | 22.5 | 0.00 | 0.00 | 0.00 | 50 | 1012.4 |
| 20260905194956 | 26 | 0 | 12.9 | 24.1 | 0.00 | 0.00 | 0.00 | 50 | 1012.5 |
| 20260905193454 | 27 | 45 | 14.5 | 24.1 | 0.00 | 0.00 | 0.00 | 50 | 1012.5 |
| 20260905191954 | 27 | 0 | 16.1 | 20.9 | 0.00 | 0.00 | 0.00 | 50 | 1012.7 |
| 20260905190450 | 27 | 45 | 9.7 | 19.3 | 0.00 | 0.00 | 0.00 | 46 | 1012.9 |
| 20260905183447 | 27 | 0 | 11.3 | 25.7 | 0.00 | 0.00 | 0.00 | 48 | 1012.6 |
| 20260905181944 | 27 | 45 | 19.3 | 33.8 | 0.00 | 0.00 | 0.00 | 51 | 1012.4 |
| 20260905180444 | 27 | 315 | 16.1 | 30.6 | 0.00 | 0.00 | 0.00 | 41 | 1012.3 |
| 20260905174938 | 27 | 0 | 22.5 | 41.8 | 0.00 | 0.00 | 0.00 | 42 | 1012.1 |
| 20260905173439 | 27 | 0 | 16.1 | 24.1 | 0.00 | 0.00 | 0.00 | 42 | 1012.1 |
| 20260905171939 | 27 | 0 | 6.4 | 19.3 | 0.00 | 0.00 | 0.00 | 41 | 1011.8 |
| 20260905154927 | 30 | 0 | 14.5 | 27.4 | 0.00 | 0.00 | 0.00 | 40 | 1011.6 |
| 20260905141435 | 31 | 45 | 12.9 | 30.6 | 0.00 | 0.00 | 0.00 | 42 | 1011.1 |
| 20260905135946 | 31 | 45 | 12.9 | 30.6 | 0.00 | 0.00 | 0.00 | 41 | 1010.9 |
| 20260905134440 | 31 | 45 | 12.9 | 30.6 | 0.00 | 0.00 | 0.00 | 42 | 1011.0 |
| 20260905131426 | 31 | 90 | 12.9 | 25.7 | 0.00 | 0.00 | 0.00 | 42 | 1010.8 |
| 20260905125931 | 31 | 45 | 19.3 | 37.0 | 0.00 | 0.00 | 0.00 | 42 | 1010.7 |
| 20260905124425 | 31 | 0 | 17.7 | 35.4 | 0.00 | 0.00 | 0.00 | 41 | 1010.7 |
| 20260905122921 | 32 | 293 | 16.1 | 35.4 | 0.00 | 0.00 | 0.00 | 41 | 1010.9 |
| 20260905121417 | 31 | 45 | 20.9 | 35.4 | 0.00 | 0.00 | 0.00 | 41 | 1010.9 |
| 20260905115916 | 31 | 45 | 17.7 | 33.8 | 0.00 | 0.00 | 0.00 | 41 | 1010.8 |
| 20260905114413 | 31 | 0 | 17.7 | 40.2 | 0.00 | 0.00 | 0.00 | 41 | 1011.0 |
| 20260905112911 | 32 | 315 | 19.3 | 37.0 | 0.00 | 0.00 | 0.00 | 42 | 1010.9 |
| 20260905111408 | 31 | 45 | 20.9 | 30.6 | 0.00 | 0.00 | 0.00 | 42 | 1010.9 |
| 20260905105906 | 32 | 0 | 19.3 | 33.8 | 0.00 | 0.00 | 0.00 | 42 | 1010.9 |
| 20260905104405 | 31 | 45 | 14.5 | 35.4 | 0.00 | 0.00 | 0.00 | 43 | 1010.6 |
| 20260905102903 | 31 | 0 | 20.9 | 33.8 | 0.00 | 0.00 | 0.00 | 42 | 1010.8 |